Atwater, CA

8:16 AM PDT on March 30, 2017 (GMT -0700)
Castle

Weather History for KMER - June, 2013

Change the Weather History Date:

Tuesday, June 4, 2013

  Actual Average (KMCE) Record (KMCE)
Temperature  
Mean Temperature 73 °F -  
Max Temperature 89 °F 88 °F 99 °F (2016)
Min Temperature 57 °F 54 °F 49 °F (1999)
Cooling Degree Days 8    
Growing Degree Days 23 (Base 50)    
Moisture  
Dew Point 52 °F    
Average Humidity 56    
Maximum Humidity 82    
Minimum Humidity 29    
Precipitation  
Precipitation 0.00 in - - ()
Sea Level Pressure  
Sea Level Pressure 29.82 in    
Wind  
Wind Speed 9 mph (North)    
Max Wind Speed 16 mph    
Max Gust Speed -    
Visibility 10 miles    
Events      
Averages and records for this station are not official NWS values.
T = Trace of Precipitation, MM = Missing Value Source: NWS Daily Summary

Daily Weather History Graph

Daily Weather History Graph

Search for Another Location

Airport or City:

Trip Planner

Search our weather history database for the weather conditions in past years. The results will help you decide how hot, cold, wet, or windy it might be!

Date:

Astronomy

Jun. 04, 2013 Rise Set
Actual Time 5:42 AM PDT 8:19 PM PDT
Civil Twilight 5:11 AM PDT 8:50 PM PDT
Nautical Twilight 4:33 AM PDT 9:28 PM PDT
Astronomical Twilight 3:50 AM PDT 10:11 PM PDT
Moon 3:10 AM PDT (6/4) 4:57 PM PDT (6/4)
Length of Visible Light 15h 38m
Length of Day
14h 37m
Waning Crescent, 13% of the Moon is Illuminated
Jun 4
Waning Crescent
Jun 8
New
Jun 16
First Quarter
Jun 23
Full
Jun 29
Last Quarter

Hourly Weather History & Observations

Time (PDT) Temp. Heat Index Dew Point Humidity Pressure Visibility Wind Dir Wind Speed Gust Speed Precip Events Conditions
12:15 AM 68.0 °F - 50.0 °F 52% 29.78 in 10.0 mi NNE 8.1 mph - N/A   Clear
12:35 AM 66.2 °F - 50.0 °F 56% 29.78 in 10.0 mi North 6.9 mph - N/A   Clear
12:55 AM 64.4 °F - 50.0 °F 59% 29.78 in 10.0 mi North 8.1 mph - N/A   Clear
1:15 AM 64.4 °F - 48.2 °F 56% 29.78 in 10.0 mi North 8.1 mph - N/A   Clear
1:35 AM 64.4 °F - 48.2 °F 56% 29.78 in 10.0 mi North 8.1 mph - N/A   Clear
1:55 AM 64.4 °F - 48.2 °F 56% 29.78 in 10.0 mi North 8.1 mph - N/A   Clear
2:15 AM 64.4 °F - 50.0 °F 59% 29.78 in 10.0 mi North - - N/A   Clear
2:35 AM 62.6 °F - 50.0 °F 63% 29.78 in 10.0 mi North 8.1 mph - N/A   Clear
2:55 AM 62.6 °F - 50.0 °F 63% 29.78 in 10.0 mi North - - N/A   Clear
3:15 AM 60.8 °F - 50.0 °F 68% 29.78 in 10.0 mi North 9.2 mph - N/A   Clear
3:35 AM 60.8 °F - 50.0 °F 68% 29.79 in 10.0 mi North 6.9 mph - N/A   Clear
3:55 AM 60.8 °F - 50.0 °F 68% 29.79 in 10.0 mi North 8.1 mph - N/A   Clear
4:15 AM 60.8 °F - 50.0 °F 68% 29.79 in 10.0 mi North - - N/A   Clear
4:35 AM 60.8 °F - 50.0 °F 68% 29.79 in 10.0 mi North - - N/A   Clear
4:55 AM 60.8 °F - 51.8 °F 72% 29.80 in 10.0 mi North - - N/A   Clear
5:15 AM 59.0 °F - 51.8 °F 77% 29.80 in 10.0 mi North 9.2 mph - N/A   Clear
5:35 AM 59.0 °F - 51.8 °F 77% 29.81 in 10.0 mi North 10.4 mph - N/A   Clear
5:55 AM 57.2 °F - 51.8 °F 82% 29.81 in 10.0 mi North 10.4 mph - N/A   Clear
6:15 AM 57.2 °F - 51.8 °F 82% 29.82 in 10.0 mi North 8.1 mph - N/A   Clear
6:35 AM 60.8 °F - 51.8 °F 72% 29.83 in 10.0 mi North 6.9 mph - N/A   Clear
6:45 AM 60.8 °F - 51.8 °F 72% 29.83 in 10.0 mi North 6.9 mph - N/A   Clear
6:55 AM 62.6 °F - 51.8 °F 68% 29.83 in 10.0 mi NNE 8.1 mph - N/A   Clear
7:45 AM 64.4 °F - 51.8 °F 64% 29.84 in 10.0 mi North 11.5 mph - N/A   Clear
8:45 AM 69.8 °F - 51.8 °F 53% 29.86 in 10.0 mi NNW 11.5 mph - N/A   Clear
9:45 AM 73.4 °F - 51.8 °F 47% 29.87 in 10.0 mi NW 9.2 mph - N/A   Clear
10:45 AM 77.0 °F - 51.8 °F 41% 29.88 in 10.0 mi NW 11.5 mph - N/A   Clear
11:45 AM 78.8 °F - 53.6 °F 42% 29.87 in 10.0 mi NNW 13.8 mph - N/A   Clear
12:45 PM 82.4 °F 81.4 °F 53.6 °F 37% 29.86 in 10.0 mi NNW 13.8 mph - N/A   Clear
1:45 PM 86.0 °F 84.2 °F 53.6 °F 33% 29.86 in 10.0 mi NW 11.5 mph - N/A   Clear
2:45 PM 87.8 °F 85.7 °F 53.6 °F 31% 29.85 in 10.0 mi NNW 11.5 mph - N/A   Clear
3:45 PM 89.6 °F 87.7 °F 55.4 °F 31% 29.83 in 10.0 mi North 11.5 mph - N/A   Clear
4:45 PM 89.6 °F 87.3 °F 53.6 °F 29% 29.83 in 10.0 mi NNW 16.1 mph - N/A   Clear
5:45 PM 89.6 °F 87.7 °F 55.4 °F 31% 29.82 in 10.0 mi NW 12.7 mph - N/A   Clear
6:45 PM 87.8 °F 86.1 °F 55.4 °F 33% 29.80 in 10.0 mi NW 12.7 mph - N/A   Clear
7:45 PM 80.6 °F 80.5 °F 55.4 °F 42% 29.81 in 10.0 mi North 13.8 mph - N/A   Clear
9:15 PM 73.4 °F - 51.8 °F 47% 29.84 in 10.0 mi NNE 9.2 mph - N/A   Clear
9:35 PM 71.6 °F - 51.8 °F 50% 29.84 in 10.0 mi North 8.1 mph - N/A   Clear
9:55 PM 71.6 °F - 51.8 °F 50% 29.85 in 10.0 mi North 6.9 mph - N/A   Clear
10:15 PM 69.8 °F - 51.8 °F 53% 29.86 in 10.0 mi North 8.1 mph - N/A   Clear
10:35 PM 69.8 °F - 51.8 °F 53% 29.86 in 10.0 mi North 6.9 mph - N/A   Clear
10:55 PM 68.0 °F - 51.8 °F 56% 29.86 in 10.0 mi North 6.9 mph - N/A   Clear
11:15 PM 66.2 °F - 51.8 °F 60% 29.87 in 10.0 mi North 6.9 mph - N/A   Clear
11:35 PM 66.2 °F - 51.8 °F 60% 29.88 in 10.0 mi North - - N/A   Clear
11:55 PM 66.2 °F - 51.8 °F 60% 29.88 in 10.0 mi NW 6.9 mph - N/A   Clear